| Time | Temp. | Dewp. | Hum. | Посока н | Скорост на | Пориви на | Bar. | 1h Prec. | 24h Prec. |
|---|---|---|---|---|---|---|---|---|---|
| 00:02 | 14.8 | 11.4 | 80 | 124 | 0.6 | 1.1 | 1020.9 | 0.0000 | 0.0000 |
| 00:12 | 14.6 | 11.4 | 81 | 163 | 0.6 | 1.4 | 1020.9 | 0.0000 | 0.0000 |
| 00:23 | 14.4 | 11.2 | 81 | 135 | 0.6 | 1.4 | 1021 | 0.0000 | 0.0000 |
| 00:33 | 14.2 | 11 | 81 | 131 | 0.6 | 1.4 | 1021 | 0.0000 | 0.0000 |
| 00:42 | 14 | 11 | 82 | 171 | 0.6 | 1.4 | 1020.9 | 0.0000 | 0.0000 |
| 00:53 | 13.8 | 10.8 | 82 | 120 | 0.6 | 1.4 | 1021 | 0.0000 | 0.0000 |
| 01:03 | 13.6 | 10.6 | 82 | 168 | 0.6 | 1.4 | 1021.1 | 0.0000 | 0.0000 |
| 01:13 | 13.4 | 10.6 | 83 | 198 | 0.6 | 1.4 | 1021.1 | 0.0000 | 0.0000 |
| 01:23 | 13.2 | 10.4 | 83 | 141 | 0.6 | 1.4 | 1021.2 | 0.0000 | 0.0000 |
| 01:33 | 13 | 10.2 | 83 | 212 | 0.6 | 1.4 | 1021.1 | 0.0000 | 0.0000 |
| 01:43 | 12.9 | 10.1 | 83 | 180 | 0.6 | 1.1 | 1021 | 0.0000 | 0.0000 |
| 01:53 | 12.7 | 9.9 | 83 | 119 | 0.6 | 1.4 | 1021.1 | 0.0000 | 0.0000 |
| 02:04 | 12.5 | 9.9 | 84 | 225 | 0.6 | 1.1 | 1021.1 | 0.0000 | 0.0000 |
| 02:14 | 12.4 | 9.8 | 84 | 195 | 0.6 | 1.4 | 1021 | 0.0000 | 0.0000 |
| 02:23 | 12.3 | 9.7 | 84 | 212 | 0.6 | 1.1 | 1021 | 0.0000 | 0.0000 |
| 02:33 | 12.1 | 9.5 | 84 | 227 | 0.6 | 1.1 | 1020.9 | 0.0000 | 0.0000 |
| 02:44 | 12 | 9.6 | 85 | 229 | 0.6 | 1.1 | 1021.1 | 0.0000 | 0.0000 |
| 02:54 | 11.8 | 9.4 | 85 | 225 | 0.6 | 1.1 | 1021.1 | 0.0000 | 0.0000 |
| 03:04 | 11.7 | 9.3 | 85 | 225 | 0.6 | 1.4 | 1021.1 | 0.0000 | 0.0000 |
| 03:14 | 11.6 | 9.2 | 85 | 225 | 0.6 | 1.4 | 1021 | 0.0000 | 0.0000 |
| 03:24 | 11.4 | 9.1 | 86 | 225 | 0.6 | 1.1 | 1021 | 0.0000 | 0.0000 |
| 03:34 | 11.3 | 9 | 86 | 234 | 0.6 | 0.8 | 1020.9 | 0.0000 | 0.0000 |
| 03:44 | 11.2 | 9.1 | 87 | 209 | 0.6 | 1.1 | 1020.9 | 0.0000 | 0.0000 |
| 03:55 | 11.1 | 9 | 87 | 231 | 0.6 | 1.1 | 1021 | 0.0000 | 0.0000 |
| 04:04 | 11.1 | 9 | 87 | 203 | 0.6 | 1.4 | 1021 | 0.0000 | 0.0000 |
| 04:14 | 11.1 | 9 | 87 | 225 | 0.6 | 1.1 | 1020.8 | 0.0000 | 0.0000 |
| 04:25 | 11.1 | 9.2 | 88 | 232 | 0.6 | 1.1 | 1020.8 | 0.0000 | 0.0000 |
| 04:35 | 11 | 9.1 | 88 | 212 | 0.6 | 1.1 | 1020.8 | 0.0000 | 0.0000 |
| 04:45 | 11 | 8.9 | 87 | 226 | 0.8 | 1.4 | 1020.9 | 0.0000 | 0.0000 |
| 04:54 | 10.8 | 8.7 | 87 | 225 | 0.6 | 0.8 | 1020.9 | 0.0000 | 0.0000 |
| 05:05 | 10.7 | 8.8 | 88 | 225 | 0.6 | 1.1 | 1021 | 0.0000 | 0.0000 |
| 05:15 | 10.6 | 8.7 | 88 | 228 | 0.6 | 1.1 | 1020.9 | 0.0000 | 0.0000 |
| 05:25 | 10.5 | 8.6 | 88 | 225 | 0.6 | 1.1 | 1020.9 | 0.0000 | 0.0000 |
| 05:35 | 10.4 | 8.5 | 88 | 225 | 0.6 | 1.1 | 1020.7 | 0.0000 | 0.0000 |
| 05:45 | 10.3 | 8.4 | 88 | 170 | 0.6 | 1.1 | 1020.6 | 0.0000 | 0.0000 |
| 05:55 | 10.2 | 8.3 | 88 | 212 | 0.6 | 1.4 | 1020.5 | 0.0000 | 0.0000 |
| 06:05 | 10 | 8.3 | 89 | 227 | 0.6 | 1.1 | 1020.5 | 0.0000 | 0.0000 |
| 06:16 | 10 | 8.3 | 89 | 217 | 0.6 | 1.4 | 1020.5 | 0.0000 | 0.0000 |
| 06:26 | 9.9 | 8.2 | 89 | 232 | 0.6 | 0.8 | 1020.7 | 0.0000 | 0.0000 |
| 06:35 | 9.8 | 8.1 | 89 | 166 | 0.8 | 1.4 | 1020.7 | 0.0000 | 0.0000 |
| 06:46 | 9.7 | 8 | 89 | 227 | 0.6 | 1.4 | 1020.9 | 0.0000 | 0.0000 |
| 06:56 | 9.7 | 8 | 89 | 223 | 0.8 | 1.4 | 1020.8 | 0.0000 | 0.0000 |
| 07:06 | 9.6 | 8 | 90 | 226 | 0.8 | 1.4 | 1020.9 | 0.0000 | 0.0000 |
| 07:16 | 9.6 | 8 | 90 | 226 | 0.6 | 1.1 | 1020.8 | 0.0000 | 0.0000 |
| 07:26 | 9.6 | 8 | 90 | 218 | 0.6 | 1.1 | 1020.7 | 0.0000 | 0.0000 |
| 07:36 | 9.8 | 8.4 | 91 | 90 | 0.3 | 0.6 | 1020.8 | 0.0000 | 0.0000 |
| 07:46 | 9.9 | 8.5 | 91 | 230 | 0.3 | 0.8 | 1020.7 | 0.0000 | 0.0000 |
| 07:56 | 10.2 | 8.8 | 91 | 184 | 0.8 | 1.7 | 1020.7 | 0.0000 | 0.0000 |
| 08:07 | 10.4 | 9 | 91 | 186 | 0.3 | 0.6 | 1020.7 | 0.0000 | 0.0000 |
| 08:16 | 10.7 | 9.5 | 92 | 125 | 0.3 | 0.6 | 1020.9 | 0.0000 | 0.0000 |
| 08:26 | 11 | 9.8 | 92 | 206 | 0.3 | 0.8 | 1021.1 | 0.0000 | 0.0000 |
| 08:37 | 11.4 | 10 | 91 | 160 | 0.8 | 1.7 | 1021 | 0.0000 | 0.0000 |
| 08:47 | 11.8 | 10.2 | 90 | 205 | 0.3 | 0.8 | 1020.9 | 0.0000 | 0.0000 |
| 08:57 | 12.1 | 10.5 | 90 | 195 | 0.6 | 1.1 | 1020.5 | 0.0000 | 0.0000 |
| 09:07 | 12.6 | 10.8 | 89 | 239 | 0.3 | 0.8 | 1020.6 | 0.0000 | 0.0000 |
| 09:17 | 12.8 | 10.9 | 88 | 229 | 0.3 | 0.6 | 1020.6 | 0.0000 | 0.0000 |
| 09:27 | 13.2 | 11.1 | 87 | 270 | 0.3 | 0.6 | 1020.7 | 0.0000 | 0.0000 |
| 09:37 | 13.4 | 11.1 | 86 | 202 | 0.6 | 0.8 | 1020.7 | 0.0000 | 0.0000 |
| 09:48 | 13.8 | 11.5 | 86 | 184 | 0.6 | 1.1 | 1020.7 | 0.0000 | 0.0000 |
| 09:58 | 14.1 | 11.6 | 85 | 216 | 0.6 | 0.8 | 1020.5 | 0.0000 | 0.0000 |
| 10:07 | 14.4 | 11.7 | 84 | 225 | 0.3 | 0.6 | 1020.6 | 0.0000 | 0.0000 |
| 10:17 | 14.8 | 11.9 | 83 | 207 | 0.6 | 1.1 | 1020.5 | 0.0000 | 0.0000 |
| 10:28 | 15.2 | 12.2 | 82 | 212 | 0.3 | 0.8 | 1020.6 | 0.0000 | 0.0000 |
| 10:38 | 15.7 | 12.5 | 81 | 206 | 0.3 | 0.8 | 1020.6 | 0.0000 | 0.0000 |
| 10:48 | 16.4 | 13.1 | 81 | 187 | 0.6 | 1.7 | 1020.8 | 0.0000 | 0.0000 |
| 10:58 | 17.1 | 13.4 | 79 | 195 | 0.8 | 2.2 | 1020.8 | 0.0000 | 0.0000 |
| 11:08 | 17.6 | 13.5 | 77 | 213 | 0.3 | 0.8 | 1020.6 | 0.0000 | 0.0000 |
| 11:18 | 18.4 | 13.9 | 75 | 235 | 0.6 | 1.7 | 1020.2 | 0.0000 | 0.0000 |
| 11:28 | 19.5 | 13.9 | 70 | 237 | 0.8 | 2.2 | 1020.4 | 0.0000 | 0.0000 |
| 11:35 | 20.1 | 14 | 68 | 165 | 1.9 | 3.6 | 1020.4 | 0.0000 | 0.0000 |
| 11:45 | 20.6 | 14 | 66 | 152 | 1.4 | 3.9 | 1020.2 | 0.0000 | 0.0000 |
| 11:55 | 21.2 | 13.9 | 63 | 157 | 1.7 | 4.4 | 1020.2 | 0.0000 | 0.0000 |
| 12:05 | 21.5 | 13.9 | 62 | 270 | 1.1 | 2.8 | 1020.2 | 0.0000 | 0.0000 |
| 12:15 | 22.2 | 14.3 | 61 | 303 | 1.1 | 3.1 | 1020 | 0.0000 | 0.0000 |
| 12:26 | 22.4 | 14 | 59 | 138 | 1.4 | 3.1 | 1020 | 0.0000 | 0.0000 |
| 12:35 | 22.8 | 14.1 | 58 | 214 | 1.7 | 4.4 | 1019.9 | 0.0000 | 0.0000 |
| 12:45 | 23.1 | 14.7 | 59 | 215 | 1.4 | 5 | 1019.8 | 0.0000 | 0.0000 |
| 12:56 | 23.3 | 14.6 | 58 | 337 | 1.7 | 4.4 | 1019.6 | 0.0000 | 0.0000 |
| 13:06 | 23.5 | 14.5 | 57 | 90 | 1.1 | 2.5 | 1019.4 | 0.0000 | 0.0000 |
| 13:16 | 23.3 | 14.3 | 57 | 243 | 0.8 | 2.5 | 1019.7 | 0.0000 | 0.0000 |
| 13:25 | 23.1 | 14.4 | 58 | 135 | 0.8 | 1.9 | 1019.5 | 0.0000 | 0.0000 |
| 13:36 | 22.8 | 14.4 | 59 | 120 | 0.8 | 1.9 | 1019.3 | 0.0000 | 0.0000 |
| 13:46 | 22.5 | 14.9 | 62 | 187 | 1.1 | 3.1 | 1019.4 | 0.0000 | 0.0000 |
| 13:56 | 22.3 | 15.2 | 64 | 199 | 0.6 | 1.4 | 1019.2 | 0.0000 | 0.0000 |
| 14:06 | 22.1 | 15.5 | 66 | 149 | 1.4 | 2.8 | 1019.2 | 0.0000 | 0.0000 |
| 14:16 | 22 | 15.1 | 65 | 173 | 0.8 | 1.7 | 1019.2 | 0.0000 | 0.0000 |
| 14:26 | 21.9 | 14.5 | 63 | 181 | 1.4 | 2.5 | 1019.1 | 0.0000 | 0.0000 |
| 14:36 | 22 | 14.9 | 64 | 169 | 1.1 | 2.5 | 1018.9 | 0.0000 | 0.0000 |
| 14:47 | 22.2 | 15.1 | 64 | 201 | 0.8 | 1.9 | 1018.9 | 0.0000 | 0.0000 |
| 14:57 | 22.4 | 15.5 | 65 | 183 | 0.6 | 1.7 | 1018.8 | 0.0000 | 0.0000 |
| 15:06 | 22.8 | 15.4 | 63 | 139 | 0.6 | 1.4 | 1018.6 | 0.0000 | 0.0000 |
| 15:16 | 23.1 | 15.7 | 63 | 125 | 0.8 | 5 | 1018.6 | 0.0000 | 0.0000 |
| 15:26 | 23.5 | 15.6 | 61 | 90 | 1.4 | 4.2 | 1018.5 | 0.0000 | 0.0000 |
| 15:35 | 23.7 | 15.2 | 59 | 195 | 1.7 | 4.4 | 1018.3 | 0.0000 | 0.0000 |
| 15:46 | 23.9 | 15.4 | 59 | 27 | 1.1 | 3.3 | 1018.4 | 0.0000 | 0.0000 |
| 15:56 | 23.9 | 15.1 | 58 | 47 | 1.1 | 4.2 | 1018.5 | 0.0000 | 0.0000 |
| 16:06 | 24 | 15.5 | 59 | 0 | 1.1 | 3.1 | 1018.4 | 0.0000 | 0.0000 |
| 16:16 | 24.4 | 15.9 | 59 | 147 | 1.7 | 3.6 | 1018.4 | 0.0000 | 0.0000 |
| 16:27 | 24.4 | 15.3 | 57 | 241 | 1.4 | 4.2 | 1018.4 | 0.0000 | 0.0000 |
| 16:36 | 24.3 | 15.8 | 59 | 253 | 0.8 | 1.4 | 1018.4 | 0.0000 | 0.0000 |
| 16:46 | 24.1 | 15.6 | 59 | 18 | 1.1 | 3.6 | 1018.4 | 0.0000 | 0.0000 |
| 16:56 | 23.8 | 15.3 | 59 | 45 | 1.1 | 2.2 | 1018.5 | 0.0000 | 0.0000 |
| 17:07 | 23.6 | 15.4 | 60 | 270 | 0.8 | 2.2 | 1018.6 | 0.0000 | 0.0000 |
| 17:17 | 23.3 | 15.4 | 61 | 230 | 0.8 | 1.9 | 1018.6 | 0.0000 | 0.0000 |
| 17:26 | 23.2 | 15.5 | 62 | 135 | 0.6 | 1.4 | 1018.4 | 0.0000 | 0.0000 |
| 17:37 | 23.2 | 15.3 | 61 | 155 | 1.1 | 2.8 | 1018.3 | 0.0000 | 0.0000 |
| 17:47 | 23.3 | 15.6 | 62 | 146 | 0.8 | 2.2 | 1018.3 | 0.0000 | 0.0000 |
| 17:57 | 23.3 | 15.4 | 61 | 115 | 0.8 | 1.9 | 1018.2 | 0.0000 | 0.0000 |
| 18:07 | 23.2 | 15.3 | 61 | 165 | 0.8 | 1.4 | 1018.1 | 0.0000 | 0.0000 |
| 18:17 | 23.4 | 15.2 | 60 | 173 | 0.8 | 1.9 | 1018.1 | 0.0000 | 0.0000 |
| 18:27 | 23.4 | 15.5 | 61 | 113 | 0.8 | 1.9 | 1018 | 0.0000 | 0.0000 |
| 18:37 | 23.3 | 15.4 | 61 | 150 | 0.6 | 1.4 | 1018.1 | 0.0000 | 0.0000 |
| 18:48 | 23.1 | 15.2 | 61 | 213 | 0.8 | 1.4 | 1018.1 | 0.0000 | 0.0000 |
| 18:58 | 22.9 | 15.2 | 62 | 215 | 0.6 | 1.1 | 1018.2 | 0.0000 | 0.0000 |
| 19:07 | 22.7 | 15.5 | 64 | 215 | 0.6 | 1.1 | 1018.3 | 0.0000 | 0.0000 |
| 19:17 | 22.5 | 15.6 | 65 | 210 | 0.6 | 1.1 | 1018.3 | 0.0000 | 0.0000 |
| 19:28 | 22.3 | 15.9 | 67 | 213 | 0.6 | 1.1 | 1018.4 | 0.0000 | 0.0000 |
| 19:38 | 22 | 15.8 | 68 | 190 | 0.6 | 1.1 | 1018.5 | 0.0000 | 0.0000 |
| 19:48 | 21.8 | 16.1 | 70 | 204 | 0.6 | 1.1 | 1018.5 | 0.0000 | 0.0000 |
| 19:58 | 21.7 | 16.2 | 71 | 159 | 0.6 | 1.1 | 1018.7 | 0.0000 | 0.0000 |
| 20:08 | 21.4 | 16.1 | 72 | 248 | 0.6 | 1.7 | 1019 | 0.0000 | 0.0000 |
| 20:18 | 21.1 | 16.1 | 73 | 225 | 0.6 | 0.8 | 1019.2 | 0.0000 | 0.0000 |
| 20:28 | 20.9 | 16.3 | 75 | 228 | 0.6 | 1.1 | 1019.3 | 0.0000 | 0.0000 |
| 20:39 | 20.8 | 16.4 | 76 | 218 | 0.8 | 1.1 | 1019.1 | 0.0000 | 0.0000 |
| 20:48 | 20.5 | 16.1 | 76 | 199 | 0.6 | 1.1 | 1019 | 0.0000 | 0.0000 |
| 20:58 | 20.2 | 15.8 | 76 | 195 | 0.6 | 1.1 | 1019.1 | 0.0000 | 0.0000 |
| 21:09 | 20 | 16.1 | 78 | 204 | 0.8 | 1.4 | 1018.9 | 0.0000 | 0.0000 |
| 21:19 | 19.7 | 15.8 | 78 | 90 | 0.3 | 0.6 | 1018.9 | 0.0000 | 0.0000 |
| 21:29 | 19.4 | 15.7 | 79 | 90 | 0.3 | 0.8 | 1019.2 | 0.0000 | 0.0000 |
| 21:38 | 19.2 | 15.7 | 80 | 90 | 0.3 | 0.6 | 1019.4 | 0.0000 | 0.0000 |
| 21:49 | 19 | 15.7 | 81 | 90 | 0.3 | 0.8 | 1019.2 | 0.0000 | 0.0000 |
| 21:59 | 18.8 | 15.7 | 82 | 90 | 0.3 | 0.8 | 1019.2 | 0.0000 | 0.0000 |
| 22:09 | 18.5 | 15.4 | 82 | 90 | 0.3 | 0.6 | 1019.3 | 0.0000 | 0.0000 |
| 22:19 | 18.3 | 15.4 | 83 | 90 | 0.3 | 0.8 | 1019.2 | 0.0000 | 0.0000 |
| 22:29 | 18.1 | 15.2 | 83 | 135 | 0.3 | 0.8 | 1019.1 | 0.0000 | 0.0000 |
| 22:39 | 17.9 | 15.2 | 84 | 45 | 0.3 | 0.8 | 1019.3 | 0.0000 | 0.0000 |
| 22:49 | 17.8 | 15.1 | 84 | 129 | 0.3 | 0.8 | 1019.2 | 0.0000 | 0.0000 |
| 23:00 | 17.7 | 15.1 | 85 | 168 | 0.3 | 0.6 | 1019.2 | 0.0000 | 0.0000 |
| 23:10 | 17.5 | 15 | 85 | 60 | 0.3 | 0.6 | 1019.2 | 0.0000 | 0.0000 |
| 23:19 | 17.5 | 15.1 | 86 | 90 | 0.3 | 0.8 | 1019.2 | 0.0000 | 0.0000 |
| 23:30 | 17.5 | 15.1 | 86 | 126 | 0.3 | 0.8 | 1019 | 0.0000 | 0.0000 |
| 23:40 | 17.4 | 15 | 86 | 135 | 0.3 | 0.8 | 1019.1 | 0.0000 | 0.0000 |
| 23:50 | 17.4 | 15.2 | 87 | 126 | 0.3 | 0.8 | 1019.2 | 0.0000 | 0.0000 |